7 * 24
多渠道服务支持
STARLINK-37700(NORAD编号69215)是美国SpaceX公司星链(Starlink)卫星互联网星座的组成卫星,归属星链低轨卫星网络部署计划。该卫星运行于近地轨道,为星链星座提供全球高速低延迟卫星互联网服务,重点覆盖传统地面网络难以接入的偏远地区、海洋与空中区域。作为星链大规模组网的一员,它延续了星链星座小型化低轨卫星设计,配合星座整体架构提升网络覆盖密度与服务稳定性,助力SpaceX推进全球卫星互联网布局,目前处于在轨运行状态。
美国
(US)
| 数据来源 | 国际轨道数据 |
| 星历时间: | 2026-07-27T08:11:54+0800 1天前 查看轨道信息 |
| 半长轴: | 6843.629km |
| 偏心率: | 0.0002476 |
| 轨道倾角: | 97.284° |
| 近地点辐角 | 124.131° |
| 升交点赤经 | 224.845° |
| 平近点角 | 236.017° |
| 近地点: | 463.797km |
| 远地点: | 467.187km |
| 周期: | 93.905分钟 |
| 每日圈数: | 15.334622 |